Weather History for KMGN - July, 2013

Change the Weather History Date:

Sunday, July 21, 2013

  Actual Average (KPLN) Record (KPLN)
Temperature  
Mean Temperature 60 °F -  
Max Temperature 72 °F 79 °F 93 °F (1955)
Min Temperature 47 °F 53 °F 36 °F (1960)
Degree Days  
Heating Degree Days 6    
Growing Degree Days 10 (Base 50)    
Moisture  
Dew Point 52 °F    
Average Humidity 72    
Maximum Humidity 93    
Minimum Humidity 47    
Precipitation  
Precipitation 0.00 in - - ()
Sea Level Pressure  
Sea Level Pressure 30.01 in    
Wind  
Wind Speed 4 mph (NE)    
Max Wind Speed 9 mph    
Max Gust Speed -    
Visibility 10 miles    
Events      
Averages and records for this station are not official NWS values.
T = Trace of Precipitation, MM = Missing Value Source: NWS Daily Summary

Daily Weather History Graph

Daily Weather History Graph

Search for Another Location

Airport or City:

Trip Planner

Search our weather history database for the weather conditions in past years. The results will help you decide how hot, cold, wet, or windy it might be!

Date:

Astronomy

Jul. 21, 2013 Rise Set
Actual Time 6:11 AM EDT 9:19 PM EDT
Civil Twilight 5:36 AM EDT 9:55 PM EDT
Nautical Twilight 4:50 AM EDT 10:40 PM EDT
Astronomical Twilight 3:54 AM EDT 11:36 PM EDT
Moon 8:14 PM EDT (7/21) 4:57 AM EDT (7/21)
Length of Visible Light 16h 18m
Length of Day
15h 07m
Waxing Gibbous, 98% of the Moon is Illuminated
Jul 21
Waxing Gibbous
Jul 22
Full
Jul 29
Last Quarter
Aug 6
New
Aug 14
First Quarter

Hourly Weather History & Observations

Time (EDT) Temp. Dew Point Humidity Pressure Visibility Wind Dir Wind Speed Gust Speed Precip Events Conditions
12:15 AM 52.7 °F 47.3 °F 82% 30.02 in 10.0 mi North 3.5 mph - N/A   Clear
12:34 AM 52.7 °F 47.7 °F 83% 30.02 in 10.0 mi North 6.9 mph - N/A   Clear
12:55 AM 52.7 °F 47.5 °F 82% 30.01 in 10.0 mi North 9.2 mph - N/A   Clear
1:15 AM 52.7 °F 47.7 °F 83% 30.01 in 10.0 mi North 8.1 mph - N/A   Clear
1:34 AM 52.7 °F 47.7 °F 83% 30.01 in 10.0 mi North 9.2 mph - N/A   Clear
1:55 AM 52.0 °F 47.5 °F 85% 30.01 in 10.0 mi NNE 3.5 mph - N/A   Clear
2:15 AM 52.5 °F 48.0 °F 85% 30.02 in 10.0 mi NNE 4.6 mph - N/A   Clear
2:34 AM 50.2 °F 46.0 °F 86% 30.02 in 10.0 mi Calm Calm - N/A   Clear
2:55 AM 49.5 °F 45.9 °F 87% 30.03 in 10.0 mi Calm Calm - N/A   Clear
3:15 AM 49.8 °F 46.0 °F 87% 30.02 in 10.0 mi Calm Calm - N/A   Clear
3:34 AM 47.8 °F 45.1 °F 90% 30.02 in 10.0 mi Calm Calm - N/A   Clear
3:55 AM 47.7 °F 45.0 °F 90% 30.02 in 10.0 mi NNE 3.5 mph - N/A   Clear
4:15 AM 47.7 °F 45.5 °F 92% 30.02 in 10.0 mi Calm Calm - N/A   Clear
4:34 AM 47.7 °F 45.0 °F 90% 30.01 in 10.0 mi North 3.5 mph - N/A   Clear
4:55 AM 47.7 °F 45.5 °F 92% 30.01 in 10.0 mi Calm Calm - N/A   Clear
5:15 AM 47.7 °F 45.5 °F 92% 30.01 in 10.0 mi NNE 3.5 mph - N/A   Clear
5:34 AM 47.7 °F 45.5 °F 92% 30.01 in 10.0 mi NNE 3.5 mph - N/A   Clear
5:55 AM 47.7 °F 45.5 °F 92% 30.02 in 10.0 mi Calm Calm - N/A   Clear
6:15 AM 47.7 °F 45.5 °F 92% 30.03 in 10.0 mi NE 3.5 mph - N/A   Clear
6:34 AM 47.7 °F 45.5 °F 92% 30.04 in 10.0 mi Calm Calm - N/A   Clear
6:55 AM 47.7 °F 45.7 °F 93% 30.04 in 10.0 mi Calm Calm - N/A   Clear
7:15 AM 49.1 °F 46.6 °F 91% 30.03 in 10.0 mi Calm Calm - N/A   Clear
7:35 AM 52.7 °F 50.0 °F 91% 30.04 in 10.0 mi Calm Calm - N/A   Clear
7:55 AM 52.7 °F 50.2 °F 91% 30.04 in 10.0 mi Calm Calm - N/A   Clear
8:15 AM 54.5 °F 51.4 °F 89% 30.05 in 10.0 mi Calm Calm - N/A   Clear
8:35 AM 55.4 °F 50.9 °F 85% 30.05 in 10.0 mi Calm Calm - N/A   Clear
8:55 AM 57.7 °F 52.5 °F 83% 30.04 in 10.0 mi East 3.5 mph - N/A   Clear
9:15 AM 58.8 °F 53.1 °F 81% 30.04 in 10.0 mi ENE 5.8 mph - N/A   Clear
9:35 AM 60.3 °F 53.4 °F 78% 30.06 in 10.0 mi East 6.9 mph - N/A   Clear
9:55 AM 62.2 °F 54.5 °F 76% 30.06 in 10.0 mi ENE 5.8 mph - N/A   Clear
10:15 AM 62.8 °F 54.5 °F 74% 30.05 in 10.0 mi East 8.1 mph - N/A   Clear
10:35 AM 65.1 °F 55.9 °F 72% 30.04 in 10.0 mi East 4.6 mph - N/A   Clear
10:55 AM 67.8 °F 56.8 °F 68% 30.04 in 10.0 mi East 3.5 mph - N/A   Scattered Clouds
11:14 AM 68.0 °F 55.6 °F 64% 30.05 in 10.0 mi ESE 4.6 mph - N/A   Scattered Clouds
11:35 AM 68.0 °F 53.8 °F 60% 30.05 in 10.0 mi ENE 8.1 mph - N/A   Scattered Clouds
11:55 AM 68.0 °F 52.0 °F 56% 30.04 in 10.0 mi NE 8.1 mph - N/A   Scattered Clouds
12:14 PM 68.0 °F 52.2 °F 57% 30.04 in 10.0 mi ESE 3.5 mph - N/A   Clear
12:35 PM 69.6 °F 52.3 °F 54% 30.04 in 10.0 mi SE 6.9 mph - N/A   Scattered Clouds
12:55 PM 71.4 °F 52.9 °F 52% 30.03 in 10.0 mi South 3.5 mph - N/A   Scattered Clouds
1:15 PM 72.9 °F 53.1 °F 50% 30.02 in 10.0 mi SE 5.8 mph - N/A   Scattered Clouds
1:35 PM 69.8 °F 51.6 °F 52% 30.02 in 10.0 mi NE 3.5 mph - N/A   Scattered Clouds
1:55 PM 72.9 °F 54.3 °F 52% 30.02 in 10.0 mi West 3.5 mph - N/A   Scattered Clouds
2:14 PM 72.9 °F 51.6 °F 47% 30.01 in 10.0 mi NW 4.6 mph - N/A   Scattered Clouds
2:35 PM 72.9 °F 52.2 °F 48% 30.01 in 10.0 mi SW 6.9 mph - N/A   Clear
2:55 PM 72.9 °F 53.6 °F 51% 30.01 in 10.0 mi WSW 6.9 mph - N/A   Scattered Clouds
3:14 PM 72.9 °F 53.6 °F 51% 30.00 in 10.0 mi WSW 8.1 mph - N/A   Scattered Clouds
3:35 PM 72.9 °F 53.6 °F 51% 30.00 in 10.0 mi WSW 6.9 mph - N/A   Clear
3:55 PM 72.9 °F 54.5 °F 52% 30.00 in 10.0 mi WSW 6.9 mph - N/A   Clear
4:15 PM 70.9 °F 55.4 °F 58% 30.00 in 10.0 mi WSW 5.8 mph - N/A   Scattered Clouds
4:35 PM 70.3 °F 56.5 °F 61% 29.99 in 10.0 mi WSW 5.8 mph - N/A   Mostly Cloudy
4:54 PM 71.1 °F 57.6 °F 62% 29.99 in 10.0 mi WSW 5.8 mph - N/A   Mostly Cloudy
5:15 PM 72.9 °F 58.1 °F 60% 29.98 in 10.0 mi SW 4.6 mph - N/A   Scattered Clouds
5:35 PM 72.9 °F 57.6 °F 59% 29.97 in 10.0 mi SW 5.8 mph - N/A   Scattered Clouds
5:54 PM 71.2 °F 57.9 °F 63% 29.97 in 10.0 mi SW 5.8 mph - N/A   Mostly Cloudy
6:15 PM 69.1 °F 56.7 °F 65% 29.96 in 10.0 mi WSW 5.8 mph - N/A   Scattered Clouds
6:35 PM 68.2 °F 56.1 °F 65% 29.95 in 10.0 mi SW 6.9 mph - N/A   Scattered Clouds
6:54 PM 68.0 °F 55.0 °F 63% 29.95 in 10.0 mi SW 4.6 mph - N/A   Clear
7:15 PM 68.0 °F 55.0 °F 63% 29.95 in 10.0 mi SSW 3.5 mph - N/A   Scattered Clouds
7:35 PM 68.0 °F 55.2 °F 64% 29.96 in 10.0 mi Calm Calm - N/A   Clear
7:54 PM 68.0 °F 56.3 °F 66% 29.96 in 10.0 mi Calm Calm - N/A   Scattered Clouds
8:15 PM 68.0 °F 56.8 °F 67% 29.96 in 10.0 mi Calm Calm - N/A   Clear
8:35 PM 68.0 °F 55.6 °F 64% 29.96 in 10.0 mi East 5.8 mph - N/A   Clear
8:54 PM 68.0 °F 56.3 °F 66% 29.96 in 10.0 mi ENE 6.9 mph - N/A   Clear
9:15 PM 68.0 °F 56.8 °F 67% 29.96 in 10.0 mi NE 5.8 mph - N/A   Mostly Cloudy
9:35 PM 68.0 °F 57.4 °F 69% 29.96 in 10.0 mi NE 6.9 mph - N/A   Overcast
9:54 PM 68.0 °F 57.6 °F 69% 29.96 in 10.0 mi NE 6.9 mph - N/A   Overcast
10:15 PM 65.8 °F 55.9 °F 70% 29.96 in 10.0 mi NE 6.9 mph - N/A   Overcast
10:34 PM 65.5 °F 55.8 °F 71% 29.97 in 10.0 mi NE 5.8 mph - N/A   Overcast
10:55 PM 65.5 °F 56.1 °F 72% 29.96 in 10.0 mi ENE 6.9 mph - N/A   Overcast
11:15 PM 65.5 °F 56.3 °F 72% 29.96 in 10.0 mi ENE 8.1 mph - N/A   Overcast
11:34 PM 65.5 °F 56.5 °F 73% 29.96 in 10.0 mi ENE 8.1 mph - N/A   Overcast
11:55 PM 65.3 °F 56.5 °F 73% 29.96 in 10.0 mi ENE 9.2 mph - N/A   Overcast